TimeCDT,TemperatureF,Dew PointF,Humidity,Sea Level PressureIn,VisibilityMPH,Wind Direction,Wind SpeedMPH,Gust SpeedMPH,PrecipitationIn,Events,Conditions,WindDirDegrees,DateUTC
12:15 AM,50.0,43.9,79,30.19,10.0,NW,10.4,-,N/A,,Overcast,320,2013-04-05 05:15:00
12:35 AM,50.0,44.1,80,30.18,10.0,NNW,5.8,-,N/A,,Overcast,330,2013-04-05 05:35:00
12:55 AM,50.0,44.2,81,30.19,10.0,NNW,6.9,-,N/A,,Overcast,330,2013-04-05 05:55:00
1:15 AM,50.0,44.4,81,30.19,10.0,NNW,6.9,-,N/A,,Overcast,330,2013-04-05 06:15:00
1:35 AM,50.2,44.6,81,30.19,10.0,NNW,5.8,-,N/A,,Overcast,330,2013-04-05 06:35:00
1:55 AM,50.2,44.6,81,30.20,10.0,NW,6.9,-,N/A,,Overcast,320,2013-04-05 06:55:00
2:15 AM,50.2,44.4,81,30.19,10.0,NNW,6.9,-,N/A,,Overcast,330,2013-04-05 07:15:00
2:35 AM,49.8,44.1,81,30.19,10.0,NNW,6.9,-,N/A,,Overcast,330,2013-04-05 07:35:00
2:55 AM,50.0,44.2,81,30.18,10.0,NNW,9.2,-,N/A,,Overcast,330,2013-04-05 07:55:00
3:15 AM,49.6,44.1,81,30.18,10.0,NNW,6.9,-,N/A,,Mostly Cloudy,330,2013-04-05 08:15:00
3:35 AM,48.4,43.7,84,30.18,10.0,NNW,5.8,-,N/A,,Scattered Clouds,330,2013-04-05 08:35:00
3:55 AM,47.3,43.3,86,30.18,10.0,NW,4.6,-,N/A,,Clear,320,2013-04-05 08:55:00
4:15 AM,46.8,43.5,88,30.18,10.0,Calm,Calm,-,N/A,,Clear,0,2013-04-05 09:15:00
4:35 AM,45.3,43.0,92,30.18,10.0,Calm,Calm,-,N/A,,Clear,0,2013-04-05 09:35:00
4:55 AM,43.9,42.4,95,30.18,10.0,Calm,Calm,-,N/A,,Clear,0,2013-04-05 09:55:00
5:15 AM,42.8,41.7,96,30.20,7.0,Calm,Calm,-,N/A,,Clear,0,2013-04-05 10:15:00
5:35 AM,42.6,41.7,97,30.20,7.0,Calm,Calm,-,N/A,,Clear,0,2013-04-05 10:35:00
5:55 AM,42.8,42.1,97,30.21,10.0,Calm,Calm,-,N/A,,Clear,0,2013-04-05 10:55:00
6:15 AM,42.4,41.4,96,30.22,7.0,Calm,Calm,-,N/A,,Clear,0,2013-04-05 11:15:00
6:35 AM,41.9,41.0,97,30.23,7.0,Calm,Calm,-,N/A,,Clear,0,2013-04-05 11:35:00
6:55 AM,42.3,41.5,97,30.22,7.0,Calm,Calm,-,N/A,,Clear,0,2013-04-05 11:55:00
7:15 AM,42.3,41.5,97,30.22,7.0,Calm,Calm,-,N/A,,Clear,0,2013-04-05 12:15:00
7:35 AM,41.9,41.2,97,30.23,4.0,Calm,Calm,-,N/A,,Clear,0,2013-04-05 12:35:00
7:55 AM,43.2,42.4,97,30.22,7.0,Calm,Calm,-,N/A,,Clear,0,2013-04-05 12:55:00
8:15 AM,44.8,43.9,97,30.23,10.0,North,3.5,-,N/A,,Clear,350,2013-04-05 13:15:00
8:35 AM,47.5,45.1,92,30.24,10.0,Calm,Calm,-,N/A,,Clear,0,2013-04-05 13:35:00
8:55 AM,51.1,46.2,83,30.25,10.0,NNW,5.8,-,N/A,,Clear,330,2013-04-05 13:55:00
9:15 AM,53.4,46.2,77,30.25,10.0,NNW,10.4,-,N/A,,Clear,340,2013-04-05 14:15:00
9:35 AM,55.2,45.9,71,30.25,10.0,North,9.2,-,N/A,,Clear,350,2013-04-05 14:35:00
9:55 AM,57.2,46.0,66,30.25,10.0,NNW,4.6,-,N/A,,Clear,340,2013-04-05 14:55:00
10:15 AM,59.2,44.4,58,30.26,10.0,North,4.6,-,N/A,,Clear,360,2013-04-05 15:15:00
10:35 AM,60.4,43.5,54,30.26,10.0,NNW,4.6,-,N/A,,Clear,330,2013-04-05 15:35:00
10:55 AM,61.5,41.9,49,30.26,10.0,NW,6.9,-,N/A,,Clear,320,2013-04-05 15:55:00
11:15 AM,62.2,40.8,45,30.26,10.0,North,4.6,-,N/A,,Clear,360,2013-04-05 16:15:00
11:35 AM,63.3,40.6,43,30.25,10.0,Calm,Calm,-,N/A,,Clear,0,2013-04-05 16:35:00
11:55 AM,64.9,40.8,41,30.24,10.0,Calm,Calm,-,N/A,,Clear,0,2013-04-05 16:55:00
12:15 PM,65.7,40.3,39,30.23,10.0,NNE,8.1,-,N/A,,Clear,20,2013-04-05 17:15:00
12:35 PM,66.4,40.1,38,30.23,10.0,Calm,Calm,-,N/A,,Clear,0,2013-04-05 17:35:00
12:55 PM,67.3,40.6,38,30.22,10.0,NE,5.8,-,N/A,,Clear,50,2013-04-05 17:55:00
1:15 PM,68.2,40.3,36,30.21,10.0,East,4.6,-,N/A,,Clear,100,2013-04-05 18:15:00
1:35 PM,69.1,40.5,35,30.20,10.0,Calm,Calm,-,N/A,,Clear,0,2013-04-05 18:35:00
1:55 PM,69.8,40.8,35,30.19,10.0,NNE,5.8,-,N/A,,Clear,20,2013-04-05 18:55:00
2:15 PM,70.9,41.9,35,30.18,10.0,NNE,5.8,-,N/A,,Clear,30,2013-04-05 19:15:00
2:35 PM,71.2,40.8,33,30.17,10.0,Calm,Calm,-,N/A,,Clear,0,2013-04-05 19:35:00
2:55 PM,71.8,42.1,34,30.16,10.0,ENE,4.6,-,N/A,,Clear,60,2013-04-05 19:55:00
3:15 PM,72.7,41.9,33,30.16,10.0,East,3.5,-,N/A,,Clear,100,2013-04-05 20:15:00
3:35 PM,72.3,42.1,34,30.14,10.0,ESE,3.5,-,N/A,,Clear,110,2013-04-05 20:35:00
3:55 PM,72.7,42.6,34,30.14,10.0,Calm,Calm,-,N/A,,Clear,0,2013-04-05 20:55:00
4:15 PM,73.0,43.5,35,30.13,10.0,SW,3.5,-,N/A,,Clear,230,2013-04-05 21:15:00
4:35 PM,73.0,44.2,36,30.12,10.0,SW,6.9,-,N/A,,Clear,230,2013-04-05 21:35:00
4:55 PM,73.0,44.4,36,30.12,10.0,WSW,3.5,-,N/A,,Clear,240,2013-04-05 21:55:00
5:15 PM,73.0,44.2,36,30.11,10.0,Calm,Calm,-,N/A,,Clear,0,2013-04-05 22:15:00
5:35 PM,72.9,43.9,35,30.11,10.0,WSW,3.5,-,N/A,,Clear,250,2013-04-05 22:35:00
5:55 PM,73.2,44.6,36,30.11,10.0,West,3.5,-,N/A,,Clear,280,2013-04-05 22:55:00
6:15 PM,72.9,44.1,36,30.11,10.0,West,3.5,-,N/A,,Clear,270,2013-04-05 23:15:00
6:35 PM,72.5,44.6,37,30.12,10.0,West,4.6,-,N/A,,Clear,260,2013-04-05 23:35:00
6:55 PM,71.2,45.1,39,30.12,10.0,Calm,Calm,-,N/A,,Clear,0,2013-04-05 23:55:00
7:15 PM,69.3,47.8,46,30.12,10.0,Calm,Calm,-,N/A,,Clear,0,2013-04-06 00:15:00
7:35 PM,64.8,51.8,63,30.12,10.0,Calm,Calm,-,N/A,,Clear,0,2013-04-06 00:35:00
7:55 PM,61.9,52.3,71,30.12,10.0,Calm,Calm,-,N/A,,Clear,0,2013-04-06 00:55:00
8:15 PM,61.0,52.0,72,30.13,10.0,Calm,Calm,-,N/A,,Clear,0,2013-04-06 01:15:00
8:35 PM,59.4,52.5,78,30.14,10.0,Calm,Calm,-,N/A,,Clear,0,2013-04-06 01:35:00
8:55 PM,58.1,52.2,81,30.14,10.0,Calm,Calm,-,N/A,,Clear,0,2013-04-06 01:55:00
9:15 PM,57.6,51.4,80,30.14,10.0,Calm,Calm,-,N/A,,Clear,0,2013-04-06 02:15:00
9:35 PM,57.7,50.7,77,30.14,10.0,Calm,Calm,-,N/A,,Clear,0,2013-04-06 02:35:00
9:55 PM,56.1,50.9,83,30.14,10.0,Calm,Calm,-,N/A,,Clear,0,2013-04-06 02:55:00
10:15 PM,54.7,50.9,87,30.15,10.0,Calm,Calm,-,N/A,,Clear,0,2013-04-06 03:15:00
10:35 PM,54.1,50.9,89,30.14,10.0,Calm,Calm,-,N/A,,Clear,0,2013-04-06 03:35:00
10:55 PM,53.1,50.5,91,30.14,10.0,Calm,Calm,-,N/A,,Clear,0,2013-04-06 03:55:00
11:15 PM,52.7,50.0,91,30.15,10.0,Calm,Calm,-,N/A,,Clear,0,2013-04-06 04:15:00
11:35 PM,51.8,50.0,94,30.14,10.0,Calm,Calm,-,N/A,,Clear,0,2013-04-06 04:35:00
11:55 PM,51.1,49.3,94,30.14,10.0,Calm,Calm,-,N/A,,Clear,0,2013-04-06 04:55:00